Location: Bethera
(33.2010°N, 79.7880°W)
Time: 05:24:33
(UTC-05:00)

Daily predictions for brighter satellites

Satellite Brightness Start Highest point End
(mag) Time Altitude Azimuth Time Altitude Azimuth Time Altitude Azimuth
Cosmos 2278 Rocket 3.6 04:02:20 34° ENE 04:02:39 34° ENE 04:07:43 10° SE
Cosmos 1459 Rocket 4.3 04:18:05 37° NNE 04:20:24 61° E 04:26:22 10° SSE
Cosmos 2100 Rocket 4.1 04:23:00 43° N 04:25:14 74° E 04:31:35 10° SSE
Atlas Centaur 2 2.9 04:25:37 66° SW 04:26:40 73° S 04:35:13 10° E
Hubble Space Telescope 3.1 04:28:50 19° SE 04:28:50 19° SE 04:30:56 10° ESE
COSMOS 2455 4.1 04:34:27 27° S 04:34:27 27° S 04:37:12 10° S
Cosmos 1802 Rocket 4.2 04:29:00 10° N 04:35:10 68° E 04:41:23 10° SSE
Cosmos 2237 Rocket 3.6 04:38:45 25° N 04:38:45 25° N 04:41:10 10° NNE
Lacrosse 5 rocket 3.4 04:33:37 20° SSE 04:35:44 29° ESE 04:39:44 10° ENE
Cosmos 2333 Rocket 4.4 04:40:56 12° N 04:40:56 12° N 04:41:28 10° N
Timation 1 Rocket 4.2 04:36:43 79° SSW 04:36:43 79° SSW 04:42:25 10° SSE
IRS-1C Rocket 4.1 04:36:13 10° NNE 04:41:30 79° ESE 04:46:44 10° S
Cosmos 1470 Rocket 4.4 04:44:48 10° SSE 04:49:08 51° E 04:53:27 10° NNE
Okean-O 4.3 04:48:44 10° NNE 04:52:44 33° E 04:56:44 10° SSE
Cosmos 1302 Rocket 4.5 04:54:36 44° NNW 04:54:36 44° NNW 04:58:20 10° N
Cosmos 2123 Rocket 4.0 04:51:54 10° S 04:58:05 84° E 05:04:21 10° N
ASTRO E2 3.3 04:59:21 47° SSE 04:59:21 47° SSE 05:02:45 10° ESE
Cosmos 2061 Rocket 4.0 04:58:07 10° NNW 05:04:29 66° W 05:10:49 10° S
Cosmos 1725 Rocket 4.2 04:58:32 10° N 05:04:43 69° E 05:10:51 10° SSE
SL-16 R/B 2.0 05:03:23 10° SSW 05:09:01 76° WNW 05:14:43 10° NNE
Cosmos 1486 Rocket 3.9 05:18:19 17° NNW 05:22:29 77° WSW 05:27:47 10° S
Meteor 2-10 Rocket 4.0 05:19:33 23° NW 05:22:45 44° W 05:28:13 10° SSW
Cosmos 2016 Rocket 4.1 05:22:38 10° NNW 05:28:32 50° W 05:34:21 10° SSW
USA 32 4.0 05:27:18 10° S 05:32:31 88° W 05:37:45 10° N
CZ-4B R/B 4.0 05:28:20 10° N 05:33:08 29° WNW 05:37:56 10° SW
Cosmos 1933 Rocket 3.6 05:29:23 10° SSW 05:33:36 52° W 05:37:52 10° N
Cosmos 2242 Rocket 3.6 05:31:12 12° NNW 05:35:11 52° W 05:39:27 10° S
Cosmos 1354 Rocket 4.3 05:30:30 10° NNW 05:35:44 68° ENE 05:40:55 10° SSE
COSMO-SKYMED 1 2.8 05:31:26 10° SSE 05:35:44 72° ENE 05:40:03 10° N
Cosmos 1892 3.1 05:32:21 10° SSW 05:35:53 36° W 05:39:25 10° NNW
Cosmos 2297 3.7 05:30:57 10° NNW 05:36:43 90° ENE 05:42:25 10° SSE
DELTA 2 R/B (1) 4.2 05:35:12 24° NW 05:38:08 43° N 05:43:26 10° ENE
CZ-2C R/B 3.2 05:35:15 10° NNE 05:40:21 57° E 05:45:19 10° S
ISS -4.0 05:42:08 30° NW 05:43:35 86° SW 05:46:50 10° SE
Cosmos 2278 Rocket 3.1 05:44:17 21° WNW 05:46:30 27° WSW 05:51:08 10° SSW
CZ-3B R/B 2.6 05:49:42 10° SW 05:53:54 53° NW 05:55:48 10° NNE
Cosmos 1437 3.8 05:53:32 22° WNW 05:54:02 23° W 05:56:38 10° SSW
MTI 4.3 05:51:20 10° SSW 05:54:19 36° W 05:56:54 13° NNW
USA 215 3.2 05:48:55 10° NE 05:55:28 79° NW 06:01:59 10° SW
EO 1 Del DPAF 3.4 05:54:09 10° S 05:57:53 51° W 06:01:38 10° NNW
Cosmos 1862 Rocket 4.2 05:55:33 10° NNW 05:59:38 36° W 06:03:42 10° SSW
Cosmos 1340 4.4 06:00:21 14° W 06:00:21 14° W 06:02:02 10° SW
Meteor 1-28 Rocket 4.4 05:58:20 10° SSW 06:01:18 22° W 06:03:43 13° NW
OAO 1 Rocket 4.5 06:00:27 13° W 06:05:15 78° N 06:10:38 10° E
Hubble Space Telescope 1.9 06:04:45 10° WSW 06:08:37 39° S 06:12:30 10° ESE
Cosmos 1408 2.7 06:05:23 10° SSW 06:09:01 51° W 06:12:40 10° N
Cosmos 2084 Rocket 4.1 06:09:48 10° NNW 06:13:31 46° ENE 06:17:16 10° SE
Lacrosse 5 rocket 2.4 06:10:46 10° WSW 06:14:54 32° NW 06:19:07 10° NNE
Atlas Centaur 2 3.4 06:08:18 10° W 06:16:33 66° SSW 06:24:55 10° ESE
Intercosmos 25 3.2 06:13:53 10° NNW 06:17:13 72° W 06:21:46 10° S
Cosmos 2233 Rocket 4.3 06:13:15 10° NNW 06:19:01 44° W 06:24:47 10° SSW
Delta 2 Rocket 3.6 06:16:31 10° WNW 06:20:46 72° N 06:25:38 10° E
Cosmos 1943 3.6 06:15:18 10° SSW 06:20:58 73° ESE 06:26:39 10° NNE
Meteor 1-10 Rocket 4.4 06:15:22 10° N 06:21:19 89° E 06:27:15 10° S
SKYMED 2 4.5 06:20:06 10° SSW 06:23:50 28° W 06:27:36 10° NW
Okean-O 4.0 06:25:58 10° NNW 06:28:56 18° WNW 06:31:54 10° WSW
Cosmos 1943 Rocket 4.2 06:27:42 10° N 06:32:28 27° ENE 06:37:12 10° ESE
